Starlink 32004

operational
NORAD ID: 60151 Int'l Des: 2024-120 Owner: SPXS Country: US Constellation: starlink
LEOCIRCULAR

Starlink 32004について

説明を読み込み中...

リアルタイム位置

3D地球を読み込み中...

次回通過

高度履歴

Altitude vs Time

uPlot chart will show altitude changes over time

軌道要素

1 60151U 24120S 25304.99338700 -.00001301 00000-0 -31796-4 0 9992
2 60151 53.1603 197.6007 0001070 92.1315 267.9808 15.30204646 76758
Epoch: Oct 31, 2025 • Age: 40 hours

現在のステータス

高度 478.7 km
速度 7.63 km/s
衛星直下点 42.83°N, 50.65°E
打ち上げ日 Jun 27, 2024
運用期間 1.3 years
タイプ internet

技術仕様

分類 Payload
質量 730.00 kg
乾燥質量 700.00 kg
総質量 730.00 kg
長さ 0.30 m
直径 4.10 m
スパン 29.00 m
形状 Box + pan
製造者 SPXS
バスタイプ Starlink V2M
フェーズステータス In Orbit
所有者/国 SPXS/US

大規模コンステレーション

Loading constellations...